Home   Weather   Elizabeth   Past weeks
Flag for USA

Past Weather in Elizabeth, New Jersey, USA — Yesterday and Last 2 Weeks

Now
73 °F

Mostly cloudy.


Feels Like: 71 °F
Forecast: 74 / 68 °F
Wind: 5 mph from North

Location: Newark International Airport

Current Time: Jun 18, 2019 at 5:01:44 pm

Latest Report: Jun 18, 2019 at 3:51 pm


Visibility: 7 mi

Pressure: 29.86 "Hg

Humidity: 90%

Dew Point: 70 °F

Location of ElizabethLocation

Past Weather in Elizabeth — Graph

°F

Elizabeth Temperature Yesterday

Maximum temperature yesterday: 77 °F (at 4:51 pm)
Minimum temperature yesterday: 70 °F (at 4:51 am)
Average temperature yesterday: 73 °F

High & Low Weather Summary for the Past Weeks

 TemperatureHumidityPressure
High85 °F (Jun 6, 4:51 pm)100% (Jun 10, 2:51 pm)30.30 "Hg (Jun 10, 2:51 pm)
Low52 °F (Jun 4, 5:51 am)19% (Jun 3, 4:51 pm)29.67 "Hg (Jun 6, 3:51 am)
Average70 °F64%29.96 "Hg
* Reported Jun 3 3:51 pm — Jun 18 3:51 pm, Elizabeth. Weather by CustomWeather, © 2019

Note: Actual official high and low records may vary slightly from our data, if they occured in-between our weather recording intervals... More about our weather records

Advertising

Elizabeth Weather History for the Previous 24 Hours

Scroll right to see more
 ConditionsComfort  
Time TempWeatherWind HumidityBarometerVisibility
3:51 pm
Tue, Jun 18
73 °FMostly cloudy.5 mph90%29.86 "Hg7 mi
2:58 pm71 °FRain. Fog.5 mph96%29.88 "Hg3 mi
2:26 pm71 °FLight rain. Fog.6 mph93%29.88 "Hg3 mi
1:51 pm72 °FHeavy rain. Fog.3 mph97%29.88 "Hg2 mi
12:51 pm73 °FHeavy rain. Fog.7 mph90%29.91 "Hg2 mi
12:43 pm73 °FHeavy rain. Fog.5 mph88%29.91 "Hg2 mi
12:28 pm73 °FThundershowers. Fog.No wind90%29.92 "Hg5 mi
11:51 am75 °FLight rain. Cloudy.7 mph82%29.92 "Hg9 mi
10:51 am74 °FCloudy.5 mph88%29.92 "Hg10 mi
10:28 am73 °FCloudy.3 mph90%29.93 "Hg10 mi
9:51 am72 °FLight rain. Mostly cloudy.No wind93%29.93 "Hg9 mi
9:30 am72 °FMostly cloudy.3 mph91%29.94 "Hg10 mi
8:51 am71 °FMostly cloudy.6 mph93%29.94 "Hg10 mi
8:33 am70 °FFog.6 mph97%29.95 "Hg6 mi
8:07 am70 °FLight rain. Fog.5 mph93%29.96 "Hg1 mi
7:42 am70 °FLight rain. Fog.6 mph93%29.96 "Hg1 mi
7:13 am70 °FHeavy rain. Fog.No wind97%29.96 "Hg1 mi
5:51 am70 °FLight rain. Fog.No wind93%29.94 "Hg5 mi
4:51 am70 °FLight rain. Fog.3 mph93%29.94 "Hg6 mi
3:51 am70 °FLow clouds.No wind93%29.93 "Hg7 mi
2:51 am70 °FMostly cloudy.3 mph90%29.95 "Hg10 mi
2:19 am70 °FMostly cloudy.No wind90%29.96 "Hg10 mi
1:51 am70 °FPartly cloudy.3 mph87%29.97 "Hg10 mi
12:51 am70 °FPassing clouds.6 mph87%29.98 "Hg10 mi
11:51 pm
Mon, Jun 17
71 °FPassing clouds.No wind84%29.98 "Hg10 mi
10:51 pm71 °FPartly cloudy.No wind81%29.98 "Hg10 mi
9:51 pm72 °FPassing clouds.5 mph78%29.98 "Hg10 mi
8:51 pm73 °FPassing clouds.3 mph74%29.96 "Hg10 mi
7:51 pm73 °FBroken clouds.8 mph74%29.97 "Hg10 mi
6:51 pm76 °FBroken clouds.6 mph72%29.96 "Hg10 mi
5:51 pm76 °FBroken clouds.3 mph72%29.96 "Hg10 mi
Weather by CustomWeather, © 2019

See weather overview